N18VK EDDG-EDDH

Flight info

Callsign N18VK
Flight time 0h 42m
Altitude 24000
Route OSNAD1Z/25 OSNAD M170 BASUM Y850 MUBZI M105 RIBSO RIBSO7A
Aircraft BE60/L-SDFGRY/C

Departure

Time 2026-04-20 19:47
Airport Münster Osnabrück Airport (EDDG)

Arrival

Time 2026-04-20 20:29
Airport Hamburg Helmut Schmidt Airport (EDDH)
Time Latitude Longitude Altitude Speed Heading
2026-04-20 19:21 52.13154 7.68325 162 ft 0 kts 91°
2026-04-20 19:41 52.13154 7.68338 162 ft 4 kts 88°
2026-04-20 19:42 52.13191 7.68356 162 ft 10 kts 336°
2026-04-20 19:42 52.13262 7.68367 162 ft 13 kts 58°
2026-04-20 19:42 52.13301 7.68537 162 ft 19 kts 72°
2026-04-20 19:42 52.13350 7.68769 162 ft 24 kts 69°
2026-04-20 19:43 52.13407 7.69047 162 ft 27 kts 70°
2026-04-20 19:43 52.13473 7.69352 162 ft 30 kts 71°
2026-04-20 19:43 52.13541 7.69670 162 ft 29 kts 70°
2026-04-20 19:43 52.13601 7.69950 162 ft 19 kts 66°
2026-04-20 19:44 52.13669 7.70038 162 ft 13 kts
2026-04-20 19:44 52.13701 7.70033 162 ft 0 kts 341°
2026-04-20 19:45 52.13719 7.70024 162 ft 6 kts 341°
2026-04-20 19:45 52.13769 7.69968 162 ft 11 kts 291°
2026-04-20 19:46 52.13770 7.69921 162 ft 0 kts 250°
2026-04-20 19:46 52.13715 7.69662 162 ft 62 kts 250°
2026-04-20 19:46 52.13507 7.68714 272 ft 102 kts 252°
2026-04-20 19:46 52.13213 7.67470 569 ft 127 kts 250°
2026-04-20 19:47 52.12903 7.66092 1082 ft 132 kts 251°
2026-04-20 19:47 52.12346 7.64887 1593 ft 140 kts 210°
2026-04-20 19:47 52.11417 7.64439 2130 ft 139 kts 176°
2026-04-20 19:47 52.10455 7.64357 2686 ft 133 kts 167°
2026-04-20 19:48 52.09667 7.64803 3149 ft 115 kts 135°
2026-04-20 19:48 52.09073 7.65625 3593 ft 109 kts 128°
2026-04-20 19:48 52.08511 7.66418 4004 ft 107 kts 129°
2026-04-20 19:48 52.07953 7.67215 4424 ft 106 kts 129°
2026-04-20 19:49 52.07396 7.68014 4855 ft 105 kts 129°
2026-04-20 19:49 52.06810 7.68872 5005 ft 128 kts 130°
2026-04-20 19:49 52.06195 7.69970 5205 ft 134 kts 109°
2026-04-20 19:49 52.06066 7.71430 5643 ft 131 kts 83°
2026-04-20 19:50 52.06366 7.72838 6071 ft 134 kts 69°
2026-04-20 19:50 52.06715 7.74247 6471 ft 135 kts 71°
2026-04-20 19:50 52.07068 7.75680 6878 ft 137 kts 71°
2026-04-20 19:50 52.07427 7.77127 7265 ft 139 kts 70°
2026-04-20 19:51 52.07794 7.78611 7668 ft 141 kts 70°
2026-04-20 19:51 52.08159 7.80073 8051 ft 142 kts 69°
2026-04-20 19:51 52.08530 7.81566 8445 ft 143 kts 69°
2026-04-20 19:51 52.08907 7.83089 8853 ft 144 kts 69°
2026-04-20 19:52 52.09278 7.84585 9248 ft 145 kts 68°
2026-04-20 19:52 52.09653 7.86141 9668 ft 146 kts 70°
2026-04-20 19:52 52.10006 7.87671 10080 ft 147 kts 66°
2026-04-20 19:52 52.10380 7.89216 10485 ft 147 kts 66°
2026-04-20 19:53 52.10762 7.90756 10889 ft 147 kts 67°
2026-04-20 19:53 52.11143 7.92294 11297 ft 147 kts 67°
2026-04-20 19:53 52.11523 7.93832 11706 ft 147 kts 67°
2026-04-20 19:53 52.11903 7.95374 12117 ft 147 kts 67°
2026-04-20 19:54 52.12283 7.96918 12531 ft 144 kts 67°
2026-04-20 19:54 52.12649 7.98402 12897 ft 139 kts 68°
2026-04-20 19:54 52.13007 7.99860 13237 ft 139 kts 68°
2026-04-20 19:54 52.13366 8.01323 13596 ft 139 kts 68°
2026-04-20 19:55 52.13726 8.02788 13975 ft 139 kts 68°
2026-04-20 19:55 52.14086 8.04252 14303 ft 140 kts 68°
2026-04-20 19:55 52.14446 8.05723 14636 ft 140 kts 68°
2026-04-20 19:55 52.14808 8.07199 14961 ft 141 kts 68°
2026-04-20 19:56 52.15066 8.08251 14991 ft 155 kts 68°
2026-04-20 19:56 52.15633 8.10571 15004 ft 177 kts 68°
2026-04-20 19:56 52.16104 8.12501 15001 ft 189 kts 68°
2026-04-20 19:56 52.16599 8.14532 15001 ft 197 kts 68°
2026-04-20 19:57 52.17113 8.16637 14994 ft 202 kts 68°
2026-04-20 19:57 52.17638 8.18792 14996 ft 206 kts 68°
2026-04-20 19:57 52.18169 8.20971 14992 ft 208 kts 68°
2026-04-20 19:57 52.18706 8.23180 14990 ft 210 kts 68°
2026-04-20 19:58 52.19246 8.25402 14994 ft 211 kts 68°
2026-04-20 19:58 52.19864 8.27576 14992 ft 213 kts 56°
2026-04-20 19:58 52.20906 8.29291 14992 ft 216 kts 37°
2026-04-20 19:58 52.22229 8.30482 14994 ft 217 kts 30°
2026-04-20 19:59 52.23568 8.31635 14989 ft 218 kts 30°
2026-04-20 19:59 52.24907 8.32801 14989 ft 218 kts 30°
2026-04-20 19:59 52.26247 8.33966 14988 ft 219 kts 30°
2026-04-20 19:59 52.27596 8.35137 14988 ft 219 kts 30°
2026-04-20 20:00 52.28943 8.36309 14992 ft 220 kts 30°
2026-04-20 20:00 52.30292 8.37483 14994 ft 220 kts 30°
2026-04-20 20:00 52.31639 8.38658 14994 ft 220 kts 30°
2026-04-20 20:00 52.32986 8.39830 14994 ft 219 kts 30°
2026-04-20 20:01 52.33878 8.40608 14988 ft 220 kts 30°
2026-04-20 20:01 52.35226 8.41784 14989 ft 220 kts 30°
2026-04-20 20:01 52.36576 8.42964 14989 ft 219 kts 30°
2026-04-20 20:01 52.37924 8.44142 14992 ft 219 kts 30°
2026-04-20 20:02 52.39262 8.45315 15049 ft 217 kts 30°
2026-04-20 20:02 52.40579 8.46467 15170 ft 213 kts 30°
2026-04-20 20:02 52.41887 8.47617 15182 ft 214 kts 30°
2026-04-20 20:02 52.43208 8.48774 15181 ft 216 kts 30°
2026-04-20 20:03 52.44511 8.49953 15182 ft 217 kts 33°
2026-04-20 20:03 52.45769 8.51371 15185 ft 217 kts 37°
2026-04-20 20:03 52.47006 8.52787 15185 ft 217 kts 36°
2026-04-20 20:03 52.48274 8.54148 15188 ft 218 kts 35°
2026-04-20 20:04 52.49544 8.55507 15191 ft 218 kts 35°
2026-04-20 20:04 52.50810 8.56873 15191 ft 218 kts 36°
2026-04-20 20:04 52.52076 8.58243 15191 ft 218 kts 36°
2026-04-20 20:04 52.53344 8.59617 15191 ft 218 kts 36°
2026-04-20 20:05 52.54609 8.60986 15189 ft 218 kts 36°
2026-04-20 20:05 52.55876 8.62361 15192 ft 218 kts 36°
2026-04-20 20:05 52.57146 8.63736 15192 ft 218 kts 36°
2026-04-20 20:05 52.58410 8.65110 15192 ft 218 kts 36°
2026-04-20 20:06 52.59681 8.66489 15192 ft 218 kts 36°
2026-04-20 20:06 52.60947 8.67865 15192 ft 218 kts 36°
2026-04-20 20:06 52.62212 8.69241 15192 ft 218 kts 36°
2026-04-20 20:06 52.63480 8.70622 15192 ft 218 kts 36°
2026-04-20 20:07 52.64748 8.72001 15193 ft 218 kts 36°
2026-04-20 20:07 52.66014 8.73382 15193 ft 218 kts 36°
2026-04-20 20:07 52.67278 8.74761 15193 ft 218 kts 36°
2026-04-20 20:07 52.68543 8.76141 15184 ft 218 kts 36°
2026-04-20 20:08 52.69809 8.77523 15188 ft 218 kts 36°
2026-04-20 20:08 52.71073 8.78905 15185 ft 218 kts 36°
2026-04-20 20:08 52.72334 8.80285 15187 ft 218 kts 36°
2026-04-20 20:08 52.73597 8.81667 15196 ft 218 kts 36°
2026-04-20 20:09 52.74862 8.83053 15201 ft 218 kts 36°
2026-04-20 20:09 52.76125 8.84437 15201 ft 218 kts 36°
2026-04-20 20:09 52.77391 8.85825 15203 ft 218 kts 36°
2026-04-20 20:09 52.78650 8.87208 15205 ft 218 kts 36°
2026-04-20 20:10 52.79915 8.88597 15202 ft 218 kts 36°
2026-04-20 20:10 52.81174 8.89981 15202 ft 218 kts 36°
2026-04-20 20:10 52.82439 8.91373 15205 ft 218 kts 36°
2026-04-20 20:10 52.83686 8.92745 15205 ft 218 kts 36°
2026-04-20 20:11 52.84949 8.94136 15211 ft 218 kts 36°
2026-04-20 20:11 52.86211 8.95527 15211 ft 218 kts 36°
2026-04-20 20:11 52.87473 8.96919 15212 ft 218 kts 36°
2026-04-20 20:11 52.88732 8.98309 15212 ft 218 kts 36°
2026-04-20 20:12 52.89992 8.99701 15210 ft 218 kts 36°
2026-04-20 20:12 52.91253 9.01094 15206 ft 218 kts 36°
2026-04-20 20:12 52.92512 9.02488 15209 ft 217 kts 36°
2026-04-20 20:13 52.95027 9.05273 15210 ft 217 kts 36°
2026-04-20 20:13 52.96281 9.06662 15209 ft 217 kts 36°
2026-04-20 20:13 52.97537 9.08057 15209 ft 217 kts 36°
2026-04-20 20:13 52.98792 9.09449 15209 ft 217 kts 36°
2026-04-20 20:14 53.00048 9.10845 15213 ft 217 kts 36°
2026-04-20 20:14 53.01303 9.12242 15214 ft 217 kts 37°
2026-04-20 20:14 53.02589 9.13683 14887 ft 230 kts 37°
2026-04-20 20:14 53.03942 9.15189 14598 ft 237 kts 36°
2026-04-20 20:15 53.05328 9.16728 14311 ft 241 kts 36°
2026-04-20 20:15 53.06730 9.18289 14016 ft 243 kts 36°
2026-04-20 20:15 53.08133 9.19858 13481 ft 243 kts 36°
2026-04-20 20:15 53.09529 9.21416 13027 ft 240 kts 36°
2026-04-20 20:16 53.10904 9.22953 12607 ft 236 kts 37°
2026-04-20 20:16 53.12251 9.24458 12270 ft 230 kts 37°
2026-04-20 20:16 53.13568 9.25930 11968 ft 225 kts 37°
2026-04-20 20:16 53.14857 9.27372 11665 ft 221 kts 37°
2026-04-20 20:17 53.16125 9.28789 11375 ft 218 kts 37°
2026-04-20 20:17 53.17379 9.30201 11084 ft 216 kts 37°
2026-04-20 20:17 53.18618 9.31594 10800 ft 214 kts 37°
2026-04-20 20:17 53.19849 9.32978 10516 ft 212 kts 37°
2026-04-20 20:18 53.21068 9.34349 10234 ft 211 kts 37°
2026-04-20 20:18 53.22280 9.35713 9934 ft 209 kts 37°
2026-04-20 20:18 53.23484 9.37070 9600 ft 209 kts 37°
2026-04-20 20:18 53.24700 9.38436 9240 ft 212 kts 37°
2026-04-20 20:19 53.25925 9.39813 8892 ft 213 kts 37°
2026-04-20 20:19 53.27176 9.41231 8574 ft 221 kts 37°
2026-04-20 20:19 53.28463 9.42686 8243 ft 226 kts 37°
2026-04-20 20:19 53.29768 9.44165 7919 ft 228 kts 38°
2026-04-20 20:20 53.31004 9.45819 7593 ft 229 kts 34°
2026-04-20 20:20 53.32425 9.47052 7150 ft 235 kts 28°
2026-04-20 20:20 53.33919 9.48213 6684 ft 234 kts 27°
2026-04-20 20:20 53.35367 9.49325 6193 ft 226 kts 27°
2026-04-20 20:21 53.36753 9.50478 5710 ft 219 kts 33°
2026-04-20 20:21 53.37994 9.51844 5236 ft 214 kts 37°
2026-04-20 20:21 53.39209 9.53253 4761 ft 211 kts 37°
2026-04-20 20:21 53.40419 9.54612 4288 ft 208 kts 34°
2026-04-20 20:22 53.41600 9.55969 3952 ft 205 kts 44°
2026-04-20 20:22 53.42589 9.57694 3956 ft 206 kts 51°
2026-04-20 20:22 53.43528 9.59526 3958 ft 208 kts 52°
2026-04-20 20:22 53.44458 9.61391 3992 ft 209 kts 52°
2026-04-20 20:23 53.45384 9.63265 3996 ft 209 kts 52°
2026-04-20 20:23 53.46326 9.65139 3997 ft 210 kts 52°
2026-04-20 20:23 53.47258 9.67027 4001 ft 210 kts 52°
2026-04-20 20:23 53.48199 9.68902 4001 ft 210 kts 52°
2026-04-20 20:24 53.49132 9.70789 4003 ft 210 kts 52°
2026-04-20 20:24 53.50065 9.72660 3840 ft 207 kts 52°
2026-04-20 20:24 53.50975 9.74487 3573 ft 197 kts 53°
2026-04-20 20:24 53.51827 9.76214 3308 ft 188 kts 53°
2026-04-20 20:25 53.52649 9.77854 3055 ft 180 kts 54°
2026-04-20 20:25 53.53436 9.79454 2810 ft 175 kts 54°
2026-04-20 20:25 53.54207 9.81000 2568 ft 171 kts 54°
2026-04-20 20:25 53.54957 9.82520 2334 ft 167 kts 54°
2026-04-20 20:26 53.55658 9.83918 2109 ft 146 kts 55°
2026-04-20 20:26 53.56275 9.85163 1911 ft 132 kts 56°
2026-04-20 20:26 53.56842 9.86314 1727 ft 125 kts 54°
2026-04-20 20:26 53.57423 9.87500 1562 ft 142 kts 53°
2026-04-20 20:27 53.58096 9.88846 1350 ft 156 kts 53°
2026-04-20 20:27 53.58729 9.90142 1113 ft 131 kts 53°
2026-04-20 20:27 53.59281 9.91224 941 ft 109 kts 52°
2026-04-20 20:27 53.59694 9.92066 799 ft 88 kts 52°
2026-04-20 20:28 53.59958 9.92609 718 ft 93 kts 50°
2026-04-20 20:28 53.60518 9.93732 546 ft 91 kts 49°
2026-04-20 20:28 53.60916 9.94542 421 ft 94 kts 50°
2026-04-20 20:28 53.61350 9.95421 285 ft 101 kts 50°
2026-04-20 20:29 53.61801 9.96315 160 ft 92 kts 50°
2026-04-20 20:29 53.62187 9.97099 56 ft 79 kts 49°
2026-04-20 20:29 53.62468 9.97672 35 ft 48 kts 51°
2026-04-20 20:29 53.62650 9.98040 36 ft 37 kts 51°
2026-04-20 20:30 53.62757 9.98323 37 ft 20 kts 103°
2026-04-20 20:30 53.62697 9.98419 40 ft 2 kts 135°
2026-04-20 20:30 53.62685 9.98436 41 ft 0 kts 139°
2026-04-20 20:30 53.62682 9.98440 41 ft 4 kts 139°
2026-04-20 20:31 53.62618 9.98526 41 ft 10 kts 152°
2026-04-20 20:31 53.62536 9.98601 41 ft 18 kts 151°
2026-04-20 20:31 53.62529 9.98792 41 ft 15 kts 79°
2026-04-20 20:31 53.62549 9.98972 41 ft 17 kts 78°
2026-04-20 20:32 53.62570 9.99149 41 ft 13 kts 79°
2026-04-20 20:32 53.62586 9.99306 41 ft 9 kts 80°
2026-04-20 20:32 53.62562 9.99340 41 ft 5 kts 173°
2026-04-20 20:32 53.62524 9.99372 41 ft 5 kts 117°
2026-04-20 20:33 53.62530 9.99458 41 ft 11 kts 78°
2026-04-20 20:33 53.62540 9.99553 41 ft 6 kts 78°
2026-04-20 20:33 53.62568 9.99561 41 ft 4 kts 287°
2026-04-20 20:33 53.62562 9.99550 41 ft 0 kts 197°